WetterOnline ( https://www.wetteronline.de )

Wetter aktuell Rothaargebirge

Aktuelles Wetter: Kahler Asten (841m)

6-stündlich | Neueste Meldungen
Ortszeit Temperatur Wetter
So, 31.05. 14:00 11.5° C bewölkt
So, 31.05. 8:00 6.1° C bedeckt
So, 31.05. 2:00 8.1° C bewölkt
Sa, 30.05. 20:00 11.7° C fast wolkenlos
Sa, 30.05. 14:00 13.2° C leicht bewölkt
Sa, 30.05. 8:00 10.4° C wolkenlos
Sa, 30.05. 2:00 8.7° C wolkenlos
Fr, 29.05. 20:00 13.0° C wolkenlos
Ortszeit Temperatur Wetter
So, 31.05. 16:00 13.1° C wolkenlos
So, 31.05. 15:50 13.1° C wolkenlos
So, 31.05. 15:40 12.5° C fast wolkenlos
So, 31.05. 15:30 12.6° C leicht bewölkt
So, 31.05. 15:20 12.6° C leicht bewölkt
So, 31.05. 15:10 12.8° C leicht bewölkt
So, 31.05. 15:00 12.6° C fast wolkenlos
So, 31.05. 14:30 12.6° C leicht bewölkt
So, 31.05. 14:00 11.5° C bewölkt
So, 31.05. 13:30 12.0° C wolkig
So, 31.05. 13:00 11.6° C wolkig
Ortszeit Relative Feuchte Sichtweite
So, 31.05. 14:00 56% >70 km
So, 31.05. 8:00 73% >70 km
So, 31.05. 2:00 67% >70 km
Sa, 30.05. 20:00 49% >70 km
Sa, 30.05. 14:00 45% >70 km
Sa, 30.05. 8:00 56% 60 km
Sa, 30.05. 2:00 57% >70 km
Fr, 29.05. 20:00 43% >70 km
Ortszeit Relative Feuchte Sichtweite
So, 31.05. 16:00 50% >70 km
So, 31.05. 15:50 50% -
So, 31.05. 15:40 50% -
So, 31.05. 15:30 52% 55 km
So, 31.05. 15:20 52% -
So, 31.05. 15:10 48% -
So, 31.05. 15:00 49% >70 km
So, 31.05. 14:30 52% 50 km
So, 31.05. 14:00 56% >70 km
So, 31.05. 13:30 54% 45 km
So, 31.05. 13:00 53% 40 km
Ortszeit Niederschlagsmenge Niederschlagsart
So, 31.05. 14:00 0.0 l/m2 in 6 Std. -
So, 31.05. 8:00 0.0 l/m2 in 12 Std. -
So, 31.05. 2:00 0.0 l/m2 in 6 Std. -
Sa, 30.05. 20:00 0.0 l/m2 in 12 Std. -
Sa, 30.05. 14:00 0.0 l/m2 in 6 Std. -
Sa, 30.05. 8:00 0.0 l/m2 in 12 Std. -
Sa, 30.05. 2:00 0.0 l/m2 in 6 Std. -
Fr, 29.05. 20:00 0.0 l/m2 in 12 Std. -
Ortszeit Niederschlagsmenge Niederschlagsart
So, 31.05. 16:00 0.0 l/m2 in 1 Std. -
So, 31.05. 15:50 keine Meldung -
So, 31.05. 15:40 keine Meldung -
So, 31.05. 15:30 0.0 l/m2 in 1 Std. -
So, 31.05. 15:20 keine Meldung -
So, 31.05. 15:10 keine Meldung -
So, 31.05. 15:00 0.0 l/m2 in 1 Std. -
So, 31.05. 14:30 0.0 l/m2 in 1 Std. -
So, 31.05. 14:00 0.0 l/m2 in 1 Std. -
So, 31.05. 13:30 0.0 l/m2 in 1 Std. -
So, 31.05. 13:00 0.0 l/m2 in 1 Std. -
Ortszeit Stärke Spitze Richtung
km/h Bft. km/h Grad Sektor
So, 31.05. 14:00 20 4 43 40° NO
So, 31.05. 8:00 20 4 31 60° NO
So, 31.05. 2:00 13 3 33 80° O
Sa, 30.05. 20:00 22 4 50 60° NO
Sa, 30.05. 14:00 28 4 48 60° NO
Sa, 30.05. 8:00 15 3 28 80° O
Sa, 30.05. 2:00 14 3 32 90° O
Fr, 29.05. 20:00 15 3 35 90° O
Ortszeit Stärke Spitze Richtung
km/h Bft. km/h Grad Sektor
So, 31.05. 16:00 17 3 41 110° O
So, 31.05. 15:50 17 3 - 110° O
So, 31.05. 15:40 25 4 - 60° NO
So, 31.05. 15:30 22 4 40 60° NO
So, 31.05. 15:20 22 4 - 60° NO
So, 31.05. 15:10 20 4 - 50° NO
So, 31.05. 15:00 20 4 37 60° NO
So, 31.05. 14:30 22 4 40 40° NO
So, 31.05. 14:00 20 4 41 40° NO
So, 31.05. 13:30 25 4 40 60° NO
So, 31.05. 13:00 20 4 43 60° NO
Ortszeit Untergrenze Bedeckung Gattung
total tief tief mittel hoch
So, 31.05. 14:00 930 m 7/8 6/8 - - -
So, 31.05. 8:00 4500 m 8/8 8/8 - - -
So, 31.05. 2:00 1500 m 7/8 7/8 - - -
Sa, 30.05. 20:00 1500 m 1/8 1/8 - - -
Sa, 30.05. 14:00 1380 m 4/8 4/8 - - -
Sa, 30.05. 8:00 - 0/8 0/8 - - -
Sa, 30.05. 2:00 - 0/8 0/8 - - -
Fr, 29.05. 20:00 - 0/8 0/8 - - -
Ortszeit Bedeckungsgrad in Achtel und Wolkenuntergrenze
So, 31.05. 16:00 keine Wolken
So, 31.05. 15:50 keine Wolken
So, 31.05. 15:40 1(10500m)
So, 31.05. 15:30 3(10500m)
So, 31.05. 15:20 3(10500m)
So, 31.05. 15:10 3(10500m)
So, 31.05. 15:00 1(1050m)
So, 31.05. 14:30 4(960m)
So, 31.05. 14:00 6(930m) 7(4200m) 7(5700m)
So, 31.05. 13:30 4(990m) 5(3000m) 7(5700m)
So, 31.05. 13:00 2(990m) 7(3300m)
Ortszeit Stationsdruck (hPa) Tendenz (hPa in 3 Std.)
So, 31.05. 14:00 923 + 0,2
So, 31.05. 8:00 923 + 0,3
So, 31.05. 2:00 923 - 0,1
Sa, 30.05. 20:00 924 - 0,4
Sa, 30.05. 14:00 925 - 0,7
Sa, 30.05. 8:00 925 + 0,1
Sa, 30.05. 2:00 926 - 0,1
Fr, 29.05. 20:00 926 - 0,8
Ortszeit Stationsdruck (hPa) Tendenz (hPa in 3 Std.)
So, 31.05. 16:00 923 - 0,3
So, 31.05. 15:50 923 keine Meldung
So, 31.05. 15:40 923 keine Meldung
So, 31.05. 15:30 923 - 0,1
So, 31.05. 15:20 923 keine Meldung
So, 31.05. 15:10 923 keine Meldung
So, 31.05. 15:00 923 0,0
So, 31.05. 14:30 923 - 0,1
So, 31.05. 14:00 923 + 0,2
So, 31.05. 13:30 923 + 0,3
So, 31.05. 13:00 923 + 0,4
Ortszeit Schneehöhe (cm)
So, 31.05. 14:00 -
So, 31.05. 8:00 -
So, 31.05. 2:00 -
Sa, 30.05. 20:00 -
Sa, 30.05. 14:00 -
Sa, 30.05. 8:00 -
Sa, 30.05. 2:00 -
Fr, 29.05. 20:00 -
Ortszeit Schneehöhe (cm)
So, 31.05. 16:00 -
So, 31.05. 15:50 -
So, 31.05. 15:40 -
So, 31.05. 15:30 -
So, 31.05. 15:20 -
So, 31.05. 15:10 -
So, 31.05. 15:00 -
So, 31.05. 14:30 -
So, 31.05. 14:00 -
So, 31.05. 13:30 -
So, 31.05. 13:00 -
Link zu dieser Seite / Seite empfehlen

Das Wetter in ...